DW1143 Weather Reports


time (UTC)temp
C
wind
direction
speed
KPH
gust
KPH
rain 1hr
cm
rain 24hr
cm
rain mn
cm
humidity
%
barometer
mb
20260505184304 13 35 1.6 8.0 0.00 0.00 0.00 65 1012.4
20260505183804 13 344 3.2 11.3 0.00 0.00 0.00 65 1012.3
20260505183304 13 42 0.0 12.9 0.00 0.00 0.00 64 1012.3
20260505182805 14 73 4.8 14.5 0.00 0.00 0.00 64 1012.3
20260505181804 14 32 1.6 9.7 0.00 0.00 0.00 63 1012.3
20260505181304 14 65 6.4 12.9 0.00 0.00 0.00 64 1012.2
20260505180804 15 349 6.4 16.1 0.00 0.00 0.00 63 1012.3
20260505180306 15 48 3.2 12.9 0.00 0.00 0.00 61 1012.3
20260505175804 15 72 6.4 12.9 0.00 0.00 0.00 61 1012.3
20260505175305 15 85 0.0 8.0 0.00 0.00 0.00 62 1012.2
20260505174804 15 52 0.0 3.2 0.00 0.00 0.00 62 1012.2
20260505173804 15 55 1.6 8.0 0.00 0.00 0.00 61 1012.3
20260505173304 15 56 4.8 14.5 0.00 0.00 0.00 61 1012.2
20260505172804 15 37 1.6 9.7 0.00 0.00 0.00 61 1012.3
20260505172306 15 24 4.8 11.3 0.00 0.00 0.00 60 1012.4
20260505171805 15 68 4.8 11.3 0.00 0.00 0.00 61 1012.4
20260505171304 15 54 4.8 12.9 0.00 0.00 0.00 61 1012.4
20260505170304 15 344 0.0 9.7 0.00 0.00 0.00 59 1012.3
20260505165804 15 37 4.8 11.3 0.00 0.00 0.00 60 1012.3
20260505165306 15 50 4.8 9.7 0.00 0.00 0.00 61 1012.4
20260505164804 15 30 6.4 19.3 0.00 0.00 0.00 61 1012.4
20260505163804 15 60 3.2 12.9 0.00 0.00 0.00 60 1012.4
20260505163305 15 51 1.6 11.3 0.00 0.00 0.00 60 1012.4
20260505162804 15 49 4.8 16.1 0.00 0.00 0.00 60 1012.4
20260505162306 15 32 8.0 12.9 0.00 0.00 0.00 60 1012.4
20260505161804 15 78 1.6 19.3 0.00 0.00 0.00 60 1012.4
20260505161304 15 58 6.4 16.1 0.00 0.00 0.00 60 1012.4
20260505160804 15 33 6.4 14.5 0.00 0.00 0.00 59 1012.4
20260505160304 15 88 3.2 9.7 0.00 0.00 0.00 61 1012.4
20260505153304 16 46 6.4 19.3 0.00 0.00 0.00 56 1012.5
20260505152805 16 53 0.0 16.1 0.00 0.00 0.00 56 1012.4
20260505152305 17 326 4.8 16.1 0.00 0.00 0.00 55 1012.5
20260505151804 17 44 3.2 19.3 0.00 0.00 0.00 53 1012.5
20260505150304 17 236 4.8 11.3 0.00 0.00 0.00 52 1012.5
20260505140304 17 99 1.6 9.7 0.00 0.00 0.00 51 1012.7
20260505130304 16 59 6.4 19.3 0.00 0.00 0.00 54 1012.9
20260505124804 16 73 9.7 19.3 0.00 0.00 0.00 55 1012.9
20260505124304 16 83 9.7 24.1 0.00 0.00 0.00 56 1012.9
20260505123804 16 36 4.8 14.5 0.00 0.00 0.00 55 1012.9
20260505123304 16 73 4.8 12.9 0.00 0.00 0.00 54 1012.9
20260505122804 16 72 6.4 16.1 0.00 0.00 0.00 55 1012.9
20260505122305 16 236 3.2 8.0 0.00 0.00 0.00 56 1012.8
20260505121804 16 73 4.8 16.1 0.00 0.00 0.00 56 1012.8
20260505121305 16 50 4.8 20.9 0.00 0.00 0.00 57 1012.9
20260505120804 16 86 4.8 14.5 0.00 0.00 0.00 56 1013.0
20260505120304 16 96 6.4 19.3 0.00 0.00 0.00 56 1012.9
20260505115804 16 66 4.8 11.3 0.00 0.00 0.00 58 1013.0
20260505115305 16 66 4.8 16.1 0.00 0.00 0.00 58 1013.0
20260505114804 16 41 4.8 14.5 0.00 0.00 0.00 57 1013.0
20260505114304 16 67 4.8 12.9 0.00 0.00 0.00 57 1013.0
20260505113804 16 38 4.8 12.9 0.00 0.00 0.00 57 1013.0
20260505113304 16 83 6.4 12.9 0.00 0.00 0.00 55 1013.1
20260505112305 16 62 4.8 9.7 0.00 0.00 0.00 58 1013.1
20260505111804 16 48 4.8 14.5 0.00 0.00 0.00 58 1013.2
20260505111304 16 62 4.8 14.5 0.00 0.00 0.00 56 1013.3
20260505110804 16 57 3.2 11.3 0.00 0.00 0.00 58 1013.3
20260505100804 15 43 0.0 9.7 0.00 0.00 0.00 62 1013.5
20260505100305 15 71 1.6 14.5 0.00 0.00 0.00 62 1013.5
20260505095804 15 36 3.2 8.0 0.00 0.00 0.00 62 1013.6
20260505094804 15 104 1.6 9.7 0.00 0.00 0.00 62 1013.7
20260505094304 15 81 1.6 11.3 0.00 0.00 0.00 62 1013.6
20260505093804 15 71 0.0 8.0 0.00 0.00 0.00 63 1013.6
20260505093305 15 28 3.2 9.7 0.00 0.00 0.00 62 1013.6
20260505092804 15 43 0.0 1.6 0.00 0.00 0.00 64 1013.6
20260505092305 14 92 3.2 11.3 0.00 0.00 0.00 65 1013.7
20260505091804 14 71 6.4 19.3 0.00 0.00 0.00 64 1013.7
20260505091304 14 73 3.2 11.3 0.00 0.00 0.00 66 1013.7
20260505090304 13 76 0.0 4.8 0.00 0.00 0.00 66 1013.8
20260505085804 13 101 3.2 14.5 0.00 0.00 0.00 66 1013.8
20260505085305 13 72 4.8 11.3 0.00 0.00 0.00 65 1013.8
20260505084804 13 46 4.8 14.5 0.00 0.00 0.00 67 1013.7
20260505084304 13 64 3.2 20.9 0.00 0.00 0.00 67 1013.7
20260505082305 13 79 1.6 11.3 0.00 0.00 0.00 69 1013.8
20260505081804 13 94 3.2 11.3 0.00 0.00 0.00 69 1013.8
20260505081304 13 45 3.2 12.9 0.00 0.00 0.00 70 1013.9
20260505080804 13 58 4.8 16.1 0.00 0.00 0.00 70 1013.9
20260505080304 12 81 1.6 14.5 0.00 0.00 0.00 71 1013.9
20260505075804 12 76 3.2 14.5 0.00 0.00 0.00 73 1013.9
20260505075304 12 58 8.0 14.5 0.00 0.00 0.00 73 1013.9
20260505074804 12 73 4.8 11.3 0.00 0.00 0.00 75 1014.0
20260505074304 11 48 1.6 8.0 0.00 0.00 0.00 78 1014.0
20260505073303 11 15 3.2 9.7 0.00 0.00 0.00 80 1014.0
20260505071804 11 61 3.2 9.7 0.00 0.00 0.00 80 1014.1
20260505070804 11 91 3.2 8.0 0.00 0.00 0.00 80 1014.1
20260505065804 11 52 3.2 9.7 0.00 0.05 0.00 80 1014.1
20260505065304 11 57 1.6 8.0 0.00 0.05 0.00 80 1014.0
20260505064803 11 42 3.2 9.7 0.00 0.05 0.00 80 1014.0
20260505063804 11 20 4.8 11.3 0.00 0.05 0.00 81 1014.0
20260505063303 11 34 3.2 8.0 0.00 0.05 0.00 81 1013.9
20260505062804 11 89 3.2 8.0 0.00 0.05 0.00 81 1013.9
20260505062304 11 74 3.2 4.8 0.00 0.05 0.00 81 1013.9
20260505061304 11 100 1.6 4.8 0.00 0.05 0.00 82 1013.9
20260505060804 11 105 3.2 8.0 0.00 0.05 0.00 83 1013.8
20260505060303 11 67 3.2 4.8 0.00 0.05 0.00 84 1013.8
20260505055804 11 80 4.8 9.7 0.00 0.08 0.00 85 1013.8
20260505055304 10 51 3.2 4.8 0.00 0.08 0.00 85 1013.7
20260505054804 10 95 3.2 8.0 0.00 0.08 0.00 86 1013.7
20260505054304 10 74 3.2 4.8 0.00 0.08 0.00 87 1013.7
20260505053804 10 49 3.2 4.8 0.00 0.08 0.00 88 1013.7
20260505052805 10 116 0.0 0.0 0.00 0.08 0.00 89 1013.7
20260505052304 10 105 0.0 0.0 0.00 0.08 0.00 89 1013.7
20260505051304 10 96 1.6 4.8 0.00 0.08 0.00 89 1013.8
20260505050803 10 81 3.2 4.8 0.00 0.08 0.00 89 1013.9
20260505041304 10 81 1.6 3.2 0.00 0.08 0.00 89 1013.8
20260505040804 10 81 0.0 1.6 0.00 0.08 0.00 89 1013.7
20260505040304 10 81 1.6 4.8 0.00 0.08 0.00 89 1013.7
20260505035804 10 84 1.6 3.2 0.00 0.08 0.00 89 1013.6
20260505035304 10 84 0.0 4.8 0.00 0.08 0.00 89 1013.6
20260505034304 10 55 1.6 4.8 0.00 0.08 0.00 89 1013.4
20260505033304 10 59 1.6 4.8 0.00 0.08 0.00 89 1013.4
20260505032804 10 57 1.6 4.8 0.00 0.08 0.00 89 1013.5
20260505032304 10 59 1.6 4.8 0.00 0.08 0.00 89 1013.6
20260505031303 10 64 1.6 4.8 0.00 0.08 0.00 89 1013.6
20260505030804 10 98 0.0 3.2 0.00 0.08 0.00 89 1013.6
20260505030305 10 100 1.6 4.8 0.00 0.08 0.00 89 1013.7
20260505025803 10 80 3.2 4.8 0.00 0.08 0.00 89 1013.7
20260505025305 10 85 3.2 8.0 0.00 0.08 0.00 89 1013.8
20260505024804 10 81 3.2 4.8 0.00 0.08 0.00 89 1013.8
20260505024303 10 60 3.2 9.7 0.00 0.08 0.00 89 1013.7
20260505023804 10 90 3.2 8.0 0.00 0.08 0.00 89 1013.8
20260505023304 10 90 1.6 8.0 0.00 0.08 0.00 89 1013.9
20260505022804 10 78 3.2 11.3 0.00 0.08 0.00 89 1013.8
20260505021304 10 80 1.6 4.8 0.00 0.08 0.00 88 1013.9
20260505020804 10 82 1.6 3.2 0.00 0.08 0.00 88 1013.9
20260505015804 10 82 1.6 3.2 0.00 0.08 0.00 88 1014.0
20260505015304 11 82 1.6 4.8 0.00 0.08 0.00 88 1014.0
20260505014804 11 81 1.6 4.8 0.00 0.08 0.00 88 1014.1
20260505014305 11 73 1.6 4.8 0.00 0.08 0.00 88 1014.0
20260505013804 11 65 3.2 4.8 0.00 0.08 0.00 88 1014.0
20260505013304 11 88 1.6 4.8 0.00 0.08 0.00 88 1014.0
20260505012803 11 80 1.6 9.7 0.00 0.08 0.00 88 1013.9
20260505011804 11 96 3.2 8.0 0.00 0.08 0.00 88 1014.0
20260505011304 11 80 1.6 8.0 0.00 0.08 0.00 88 1014.1
20260505005804 11 53 1.6 3.2 0.00 0.08 0.00 87 1014.1
20260505005304 11 53 1.6 4.8 0.00 0.08 0.00 87 1014.1
20260505004803 11 92 1.6 4.8 0.00 0.08 0.00 87 1014.1
20260505004304 11 88 1.6 4.8 0.00 0.08 0.00 87 1014.1
20260505003804 11 74 1.6 4.8 0.00 0.08 0.00 87 1014.1
20260505003303 11 64 3.2 8.0 0.00 0.08 0.00 87 1014.0
20260505002804 11 50 3.2 4.8 0.00 0.08 0.00 87 1014.0
20260505002304 11 73 3.2 8.0 0.00 0.08 0.00 87 1014.0
20260505001803 11 63 1.6 4.8 0.00 0.08 0.00 87 1014.1
20260505001304 12 72 1.6 3.2 0.00 0.08 0.00 87 1014.1
20260505000804 12 55 1.6 3.2 0.00 0.08 0.00 87 1014.1
20260505000304 12 89 1.6 4.8 0.00 0.08 0.00 87 1014.2
20260504235804 12 53 1.6 4.8 0.00 0.08 0.00 87 1014.2
20260504235304 12 32 3.2 4.8 0.00 0.08 0.00 87 1014.3
20260504234804 12 29 1.6 4.8 0.00 0.08 0.00 87 1014.3
20260504234304 12 94 1.6 4.8 0.00 0.08 0.00 86 1014.4
20260504233803 12 79 1.6 4.8 0.00 0.08 0.00 87 1014.4
20260504233304 12 78 0.0 3.2 0.00 0.08 0.00 86 1014.5
20260504232803 12 78 0.0 3.2 0.00 0.08 0.00 86 1014.5
20260504232304 12 79 1.6 4.8 0.00 0.08 0.00 86 1014.5
20260504231804 12 81 1.6 3.2 0.00 0.08 0.00 86 1014.4
20260504231304 12 82 3.2 4.8 0.00 0.08 0.00 86 1014.3
20260504230819 12 63 1.6 4.8 0.00 0.08 0.00 86 1014.3
20260504225804 13 87 0.0 1.6 0.00 0.08 0.08 86 1014.2
20260504225304 13 87 0.0 3.2 0.00 0.08 0.08 85 1014.2
20260504224303 13 87 1.6 4.8 0.00 0.08 0.08 85 1014.3
20260504223304 13 88 3.2 4.8 0.00 0.08 0.08 85 1014.3
20260504222804 13 78 1.6 4.8 0.00 0.08 0.08 85 1014.3
20260504222305 13 95 1.6 4.8 0.00 0.08 0.08 85 1014.3
20260504221803 13 95 0.0 3.2 0.00 0.08 0.08 85 1014.3
20260504221304 13 95 1.6 3.2 0.00 0.08 0.08 85 1014.2
20260504220304 13 95 1.6 3.2 0.00 0.08 0.08 84 1014.2
20260504215803 13 96 0.0 3.2 0.00 0.08 0.08 84 1014.3
20260504215305 13 96 0.0 3.2 0.00 0.08 0.08 84 1014.3
20260504214804 13 96 0.0 3.2 0.00 0.10 0.08 83 1014.3
20260504214304 13 96 0.0 3.2 0.00 0.10 0.08 83 1014.3
20260504213803 13 96 0.0 1.6 0.00 0.10 0.08 83 1014.3
20260504213304 13 96 0.0 3.2 0.00 0.10 0.08 82 1014.3
20260504212804 13 96 0.0 3.2 0.00 0.10 0.08 82 1014.3
20260504212304 13 96 0.0 3.2 0.00 0.10 0.08 82 1014.3
20260504211804 13 96 1.6 4.8 0.00 0.10 0.08 81 1014.3
20260504211304 14 96 0.0 3.2 0.00 0.10 0.08 81 1014.3
20260504210804 14 96 1.6 4.8 0.00 0.10 0.08 81 1014.3
20260504210304 14 96 1.6 4.8 0.00 0.10 0.08 81 1014.3
20260504205804 14 96 1.6 4.8 0.00 0.10 0.08 81 1014.4
20260504205304 14 96 1.6 3.2 0.00 0.10 0.08 80 1014.3
20260504204305 14 83 1.6 4.8 0.00 0.10 0.08 80 1014.3
20260504203805 14 90 1.6 4.8 0.00 0.10 0.08 80 1014.3
20260504202805 15 32 1.6 4.8 0.00 0.10 0.08 80 1014.3
20260504202305 15 39 1.6 8.0 0.00 0.10 0.08 79 1014.2
20260504201805 15 58 1.6 4.8 0.00 0.13 0.08 79 1014.2
20260504201306 15 76 1.6 4.8 0.00 0.20 0.08 79 1014.1
20260504200805 15 73 3.2 4.8 0.00 0.23 0.08 79 1014.1
20260504195305 15 75 1.6 8.0 0.00 0.36 0.08 78 1013.9
20260504192805 15 88 3.2 4.8 0.00 0.36 0.08 77 1013.6
20260504192305 15 64 3.2 8.0 0.00 0.36 0.08 77 1013.5
20260504191805 15 34 1.6 4.8 0.00 0.36 0.08 76 1013.5
20260504191305 16 53 3.2 8.0 0.00 0.36 0.08 76 1013.5
20260504190805 16 55 4.8 11.3 0.00 0.36 0.08 75 1013.5
20260504190305 16 56 3.2 4.8 0.00 0.36 0.08 75 1013.5